Flag for Barbados Weather past 2 weeks in Bridgetown, Barbados

Now
84 °F

Partly sunny.


Feels Like: 92 °F
Forecast: 81 / 85 °F
Wind: 21 mph from Northeast

Location: Grantley Adams

Current Time: Jul 7, 2015 at 9:44:04 AM

Latest Report: Jul 7, 2015 at 9:00 AM


Visibility: N/A

Pressure: 30.01 "Hg

Humidity: 74%

Dew point: 75 °F

Location of BridgetownLocation

Historic Weather in Bridgetown — Graph

°F

Bridgetown temperature yesterday

Maximum temperature yesterday: 84 °F (at 9:00 AM)
Minimum temperature yesterday: 79 °F (at 2:00 AM)
Average temperature yesterday: 82 °F

Past Weeks' High & Low Weather Summary

 TemperatureHumidityPressure
High88 °F (Jun 24, 1:00 PM)94% (Jun 22, 2:00 PM)30.09 "Hg (Jun 22, 2:00 PM)
Low77 °F (Jun 26, 4:00 AM)62% (Jun 24, 1:00 PM)29.95 "Hg (Jul 2, 4:00 AM)
Average82 °F77%30.02 "Hg
* Reported Jun 22 8:00 AM — Jul 7 8:00 AM, Bridgetown, Weather by CustomWeather, © 2015

Note: Actual official high and low records may vary slightly from our data, if they occured in-between our weather recording intervals... More about our weather records

Advertising

Bridgetown weather history for previous 24 hours

 ConditionsComfort  
Time TempWeatherWind HumidityBarometerVisibility
8:00 AM
Tue, Jul 7
82 °FBroken clouds.21 mph79%30.01 "HgN/A
7:00 AM81 °FBroken clouds.18 mph84%29.98 "HgN/A
6:00 AM81 °FBroken clouds.20 mph79%29.98 "HgN/A
5:00 AM81 °FPassing clouds.18 mph79%29.95 "HgN/A
4:00 AM81 °FPartly cloudy.21 mph79%29.95 "HgN/A
3:00 AM81 °FPassing clouds.21 mph79%29.95 "HgN/A
2:00 AM81 °FPassing clouds.22 mph84%29.95 "HgN/A
1:00 AM81 °FPassing clouds.22 mph79%29.98 "HgN/A
12:00 AM81 °FPassing clouds.21 mph84%30.01 "HgN/A
11:00 PM
Mon, Jul 6
81 °FPassing clouds.18 mph84%30.01 "HgN/A
10:00 PM81 °FPassing clouds.20 mph84%30.01 "HgN/A
9:00 PM81 °FPartly cloudy.14 mph84%30.01 "HgN/A
7:00 PM79 °FPartly cloudy.18 mph89%29.98 "HgN/A
6:00 PM81 °FBroken clouds.17 mph79%29.95 "HgN/A
5:00 PM82 °FPartly sunny.18 mph79%29.95 "HgN/A
4:00 PM84 °FBroken clouds.23 mph66%29.95 "HgN/A
3:00 PM84 °FBroken clouds.23 mph70%29.98 "HgN/A
2:00 PM81 °FBroken clouds.22 mph84%29.98 "HgN/A
12:00 PM84 °FScattered clouds.21 mph70%29.98 "HgN/A
11:00 AM84 °FBroken clouds.26 mph74%30.01 "HgN/A
10:00 AM84 °FBroken clouds.26 mph70%30.01 "HgN/A
9:00 AM84 °FPartly sunny.26 mph70%30.01 "HgN/A
Weather by CustomWeather, © 2015

See weather overviewHow to use our weather pages